"Pseudo-MPEC" for P2183og

Created 2020 Oct 20 1:07:33 UT using Find_Orb

Click here for an explanation of pseudo-MPECs

 
 Astrometry: 
     P2183og  C2020 10 08.44200 02 50 11.91 -04 12 53.5    ~AK17 21.2 GVNEOCPG96
     P2183og  C2020 10 08.44713 02 50 12.04 -04 12 58.0    ~AK17 21.3 GVNEOCPG96
     P2183og  C2020 10 15dUAstrometrySWBjaeL9(MNPHI`%FFjVK4DEredacted;0CUty.,F52
     P2183og  C2020 10 15uxG;%:W-g_7jbwocx9?I(=HxMlSEab@:c[s$lZkQr5nI*W!xv$9'F52
     P2183og  C2020 10 15$AM2wrs_lg(`clicktAL9atF+rD'v$tW\;*nlVB+I/.+p4%7:_*YF52
     P2183og  C2020 10 15drEI$@:51c\A+gD:uO0dU!$:here_ZN`\lX68[n2b/for!Mr]n#KF52
     P2183og ^C2020 10 18.39249802 53 24.731-06 35 13.76   ~AIKb 21.19GVNEOCP568
     P2183og ^C2020 10 18.39344302 53 24.733-06 35 14.51   ~AIKb 21.13GVNEOCP568
     P2183og ^C2020 10 18.39439802 53 24.736-06 35 15.26   ~AIKb 21.19GVNEOCP568
     P2183og ^C2020 10 18.39540002 53 24.735-06 35 16.02   ~AIKb 21.15GVNEOCP568
     P2183og ^C2020 10 18.39634802 53 24.738-06 35 16.74   ~AIKb 21.23GVNEOCP568
     P2183og pC2020 10 199qh(dw]C8CW@)n2;*$wy6_blf4OZ7TM.UjsmNp_qexplanationNL01
     P2183og KC2020 10 19%TB8opF%a_ASKU(`F73/l)y?w'6\Rd,`TVf$VFeggC!Mi8;x^DRWL01
     P2183og KC2020 10 19u3mXf1tLq(\^,9^rUKjvnk$8]?jucBS9VFKvXE)'_AgR%9-Q*)yOL01
     P2183og KC2020 10 19-k3\.DX;]hb.dt-gW4yUXXI?/Sc\dTIj624IMq7iYV=fwuT#t05,L01

Station data:
(568) Mauna Kea  (N19.826116 W155.472200)  US/Hawaii.
(F52) Pan-STARRS 2, Haleakala  (N20.707384 W156.255910)  US/Hawaii. 1.8-m
   Ritchey-Chrétien + CCD.
(G96) Mt. Lemmon Survey  (N32.442754 W110.788720)  US/Arizona.  Observers T.
   A. Pruyne, B. M. Africano, E. J. Christensen, G. A. Farneth, D. C. Fuls,
   A. R. Gibbs, A. D. Grauer, H. Gröller, J. A. Johnson, R. A. Kowalski, S.
   M. Larson, G. J. Leonard, D. Rankin, R. L. Seaman, F. C. Shelly. 1.5-m
   reflector + 10K CCD.
(L01) Višnjan Observatory, Tičan  (N45.290900 E13.749300)  Croatia.
   Observers K. Korlević, E. Pettarin. Measurer E. Pettarin. 1.0-m f/2.9
   reflector + CCD.

Orbital elements:  P2183og
   Perihelion 2020 Oct 18.476820 +/- 0.114 TT = 11:26:37 (JD 2459140.976820)
Epoch 2020 Oct 19.0 TT = JDT 2459141.5   Earth MOID: 0.4540   AutoNEOCP
M   0.15145056 +/- 0.032            (J2000 ecliptic)
n   0.28948075 +/- 0.000588         Peri.  235.89744 +/- 0.11
a   2.26319993 +/- 0.00306          Node   153.71767 +/- 0.040
e   0.3689313 +/- 0.000619          Incl.    8.49783 +/- 0.010
P   3.40                   H 21.6   G  0.15   U  7.7  
q 1.42823450 +/- 0.00054    Q 3.09816536 +/- 0.00557
From 15 observations 2020 Oct. 8-19; mean residual 0".14
Residuals in arcseconds: 
201008 G96  .02-  .10-    201015 F52  .01-  .00     201018 568  .03-  .01+    
201008 G96  .01+  .09+    201018 568  .03-  .01-    201019 L01  .44-  .08+    
201015 F52  .01-  .00     201018 568  .03-  .03-    201019 L01  .16+  .36-    
201015 F52  .04+  .06+    201018 568  .01-  .03-    201019 L01  .32+  .22+    
201015 F52  .05+  .02-    201018 568  .05-  .01-    201019 L01  .03+  .10+    

Ephemerides (geocentric):
Date (UTC) HH   RA              Dec         delta   r     elong  mag " sig PA
---- -- -- --  -------------   -----------  ------ ------ -----  --- ---- ---
2020 10 20 01  02 53 35.441   -06 55 49.30  .46307 1.4283 154.7 21.6 .129  84
2020 10 20 02  02 53 35.662   -06 56 19.87  .46305 1.4283 154.8 21.6 .133  84
2020 10 20 03  02 53 35.879   -06 56 50.40  .46304 1.4283 154.8 21.6 .138  84
2020 10 20 04  02 53 36.093   -06 57 20.88  .46303 1.4283 154.8 21.6 .142  84
2020 10 20 05  02 53 36.304   -06 57 51.33  .46301 1.4283 154.8 21.6 .146  84
2020 10 20 06  02 53 36.512   -06 58 21.73  .46300 1.4283 154.8 21.6 .150  84
2020 10 20 07  02 53 36.717   -06 58 52.08  .46299 1.4283 154.8 21.6 .155  84
2020 10 20 08  02 53 36.919   -06 59 22.39  .46297 1.4283 154.8 21.6 .159  84
2020 10 20 09  02 53 37.118   -06 59 52.66  .46296 1.4283 154.8 21.6 .163  84
2020 10 20 10  02 53 37.313   -07 00 22.88  .46295 1.4283 154.8 21.6 .168  84
2020 10 20 11  02 53 37.506   -07 00 53.06  .46294 1.4283 154.9 21.6 .172  84
2020 10 20 12  02 53 37.696   -07 01 23.20  .46293 1.4283 154.9 21.6 .176  84
2020 10 20 13  02 53 37.882   -07 01 53.29  .46291 1.4283 154.9 21.6 .181  84
2020 10 20 14  02 53 38.065   -07 02 23.34  .46290 1.4284 154.9 21.6 .185  84
2020 10 20 15  02 53 38.246   -07 02 53.34  .46289 1.4284 154.9 21.6 .190  84
2020 10 20 16  02 53 38.423   -07 03 23.30  .46288 1.4284 154.9 21.6 .194  84
2020 10 20 17  02 53 38.597   -07 03 53.21  .46287 1.4284 154.9 21.6 .199  84
2020 10 20 18  02 53 38.768   -07 04 23.08  .46286 1.4284 154.9 21.6 .204  84
2020 10 20 19  02 53 38.936   -07 04 52.91  .46285 1.4284 154.9 21.6 .208  84
2020 10 20 20  02 53 39.102   -07 05 22.68  .46284 1.4284 155.0 21.6 .213  84
2020 10 20 21  02 53 39.264   -07 05 52.42  .46283 1.4284 155.0 21.6 .217  84
2020 10 20 22  02 53 39.423   -07 06 22.11  .46282 1.4284 155.0 21.6 .222  84
2020 10 20 23  02 53 39.579   -07 06 51.75  .46281 1.4284 155.0 21.6 .227  84
2020 10 21 00  02 53 39.732   -07 07 21.35  .46280 1.4284 155.0 21.6 .232  84
2020 10 21 01  02 53 39.882   -07 07 50.90  .46279 1.4284 155.0 21.6 .236  84
2020 10 21 02  02 53 40.029   -07 08 20.41  .46279 1.4284 155.0 21.6 .241  84
2020 10 21 03  02 53 40.173   -07 08 49.87  .46278 1.4284 155.0 21.6 .246  84
2020 10 21 04  02 53 40.315   -07 09 19.29  .46277 1.4284 155.0 21.6 .251  84
2020 10 21 05  02 53 40.453   -07 09 48.66  .46276 1.4284 155.1 21.6 .256  84
2020 10 21 06  02 53 40.588   -07 10 17.98  .46275 1.4284 155.1 21.6 .261  84
2020 10 21 07  02 53 40.720   -07 10 47.26  .46275 1.4284 155.1 21.6 .265  84
2020 10 21 08  02 53 40.850   -07 11 16.50  .46274 1.4285 155.1 21.6 .270  84
2020 10 21 09  02 53 40.976   -07 11 45.68  .46273 1.4285 155.1 21.6 .275  84
2020 10 21 10  02 53 41.100   -07 12 14.82  .46273 1.4285 155.1 21.6 .280  84
2020 10 21 11  02 53 41.220   -07 12 43.92  .46272 1.4285 155.1 21.6 .285  84
2020 10 21 12  02 53 41.338   -07 13 12.96  .46272 1.4285 155.1 21.6 .290  84
2020 10 21 13  02 53 41.453   -07 13 41.96  .46271 1.4285 155.1 21.6 .296  84
2020 10 21 14  02 53 41.565   -07 14 10.92  .46270 1.4285 155.1 21.6 .301  84
2020 10 21 15  02 53 41.674   -07 14 39.83  .46270 1.4285 155.2 21.6 .306  84
2020 10 21 16  02 53 41.780   -07 15 08.69  .46269 1.4285 155.2 21.6 .311  84
2020 10 21 17  02 53 41.883   -07 15 37.50  .46269 1.4285 155.2 21.6 .316  84
2020 10 21 18  02 53 41.983   -07 16 06.27  .46268 1.4285 155.2 21.6 .321  84
2020 10 21 19  02 53 42.081   -07 16 34.99  .46268 1.4285 155.2 21.6 .327  84
2020 10 21 20  02 53 42.175   -07 17 03.66  .46268 1.4285 155.2 21.6 .332  84
2020 10 21 21  02 53 42.267   -07 17 32.28  .46267 1.4285 155.2 21.6 .337  84
2020 10 21 22  02 53 42.356   -07 18 00.86  .46267 1.4286 155.2 21.6 .342  84
2020 10 21 23  02 53 42.442   -07 18 29.39  .46267 1.4286 155.2 21.6 .348  84
2020 10 22 00  02 53 42.525   -07 18 57.88  .46266 1.4286 155.2 21.6 .353  84